Location: Vienna
(48.2082°N, 16.3738°E)
Time: 17:28:11
(UTC+01:00)

ISS - Pass Details

Date: 27 November 2019
Orbit: 411 x 421 km, 51.6° (Epoch: 14 December)

Event Time Altitude Azimuth Distance (km) Brightness Sun altitude
Rises 19:13:15 0° 276° (W) 2,361 1.2 -30.7°
Reaches altitude 10° 19:15:24 10° 283° (WNW) 1,500 -0.1 -31.0°
Enters shadow 19:15:46 12° 285° (WNW) 1,361 -0.4 -31.1°
